Tok, AK

1:13 PM AKST on December 06, 2016 (GMT -0900)
Eagle

Weather History for PAEG - September, 2013

Change the Weather History Date:

Friday, September 27, 2013

  Actual Average (PABN) Record (PABN)
Temperature  
Mean Temperature 38 °F -  
Max Temperature 48 °F 37 °F 48 °F (1997)
Min Temperature 28 °F 25 °F 19 °F (1996)
Degree Days  
Heating Degree Days 27    
Moisture  
Dew Point 32 °F    
Average Humidity 82    
Maximum Humidity 96    
Minimum Humidity 58    
Precipitation  
Precipitation 0.00 in - - ()
Sea Level Pressure  
Sea Level Pressure 29.32 in    
Wind  
Wind Speed 1 mph (SE)    
Max Wind Speed 6 mph    
Max Gust Speed -    
Visibility 10 miles    
Events      
Averages and records for this station are not official NWS values.
T = Trace of Precipitation, MM = Missing Value Source: NWS Daily Summary

Daily Weather History Graph

Daily Weather History Graph

Search for Another Location

Airport or City:

Trip Planner

Search our weather history database for the weather conditions in past years. The results will help you decide how hot, cold, wet, or windy it might be!

Date:

Astronomy

Sep. 27, 2013 Rise Set
Actual Time 7:23 AM AKDT 7:05 PM AKDT
Civil Twilight 6:34 AM AKDT 7:54 PM AKDT
Nautical Twilight 5:36 AM AKDT 8:52 PM AKDT
Astronomical Twilight 4:30 AM AKDT 9:56 PM AKDT
Moon 11:24 PM AKDT (9/27) 4:49 PM AKDT (9/27)
Length of Visible Light 13h 19m
Length of Day
11h 42m
Last Quarter, 44% of the Moon is Illuminated
Sep 27
Last Quarter
Oct 4
New
Oct 11
First Quarter
Oct 18
Full
Oct 26
Last Quarter

Hourly Weather History & Observations

Time (AKDT) Temp. Windchill Dew Point Humidity Pressure Visibility Wind Dir Wind Speed Gust Speed Precip Events Conditions
12:53 AM 30.0 °F - 28.0 °F 92% 29.45 in 10.0 mi Calm Calm - N/A   Overcast
1:53 AM 28.9 °F - 27.0 °F 92% 29.43 in 10.0 mi Calm Calm - N/A   Overcast
2:53 AM 30.0 °F - 28.0 °F 92% 29.40 in 10.0 mi Calm Calm - N/A   Overcast
3:53 AM 30.9 °F - 28.9 °F 92% 29.38 in 10.0 mi Calm Calm - N/A   Overcast
4:53 AM 33.1 °F - 30.9 °F 92% 29.37 in 10.0 mi Calm Calm - N/A   Overcast
5:16 AM 33.8 °F - 30.2 °F 87% 29.34 in 10.0 mi Calm Calm - N/A   Overcast
5:40 AM 33.8 °F - 30.2 °F 87% 29.34 in 10.0 mi Calm Calm - N/A   Overcast
5:53 AM 33.1 °F - 30.9 °F 92% 29.36 in 10.0 mi Calm Calm - N/A   Overcast
6:53 AM 33.1 °F - 32.0 °F 96% 29.34 in 10.0 mi Calm Calm - N/A   Overcast
7:53 AM 34.0 °F - 32.0 °F 92% 29.33 in 10.0 mi Calm Calm - N/A   Overcast
8:53 AM 36.0 °F - 33.1 °F 89% 29.32 in 10.0 mi Calm Calm - N/A   Overcast
9:53 AM 37.0 °F - 34.0 °F 89% 29.32 in 10.0 mi Calm Calm - N/A   Overcast
10:14 AM 37.4 °F - 33.8 °F 87% 29.28 in 10.0 mi Calm Calm - N/A   Overcast
10:53 AM 41.0 °F - 36.0 °F 82% 29.31 in 10.0 mi Calm Calm - N/A   Overcast
11:53 AM 46.0 °F 43.9 °F 37.0 °F 71% 29.29 in 10.0 mi SE 4.6 mph - 0.00 in   Overcast
12:53 PM 46.9 °F - 37.0 °F 68% 29.28 in 10.0 mi Variable 5.8 mph - N/A   Overcast
1:53 PM 46.9 °F - 37.0 °F 68% 29.29 in 10.0 mi Variable 3.5 mph - N/A   Overcast
2:53 PM 48.0 °F - 37.0 °F 66% 29.29 in 10.0 mi Calm Calm - N/A   Overcast
3:53 PM 48.9 °F - 35.1 °F 59% 29.28 in 10.0 mi Variable 5.8 mph - N/A   Overcast
4:53 PM 48.0 °F - 34.0 °F 58% 29.28 in 10.0 mi SE 3.5 mph - N/A   Overcast
5:53 PM 46.9 °F - 35.1 °F 63% 29.28 in 10.0 mi Calm Calm - N/A   Overcast
6:53 PM 42.1 °F - 35.1 °F 76% 29.28 in 10.0 mi Calm Calm - N/A   Overcast
7:53 PM 36.0 °F - 30.9 °F 82% 29.29 in 10.0 mi Calm Calm - N/A   Mostly Cloudy
8:53 PM 35.1 °F - 30.9 °F 85% 29.28 in 10.0 mi Calm Calm - N/A   Overcast
9:53 PM 32.0 °F - 28.9 °F 88% 29.28 in 10.0 mi Calm Calm - N/A   Mostly Cloudy
10:53 PM 35.1 °F - 32.0 °F 89% 29.28 in 10.0 mi Calm Calm - N/A   Overcast
11:53 PM 32.0 °F - 30.0 °F 92% 29.28 in 10.0 mi Calm Calm - N/A   Mostly Cloudy